Regional Weather Roundup
Issued by NWS Wakefield, VA

Home | Current Version | Previous Version | Graphics & Text | Print | Product List | Glossary On
Versions: 1 2 3 4 5 6 7 8 9 10 11 12 13 14 15 16 17 18 19 20 21 22 23 24 25 26 27
000
ASUS41 KAKQ 220515
RWRAKQ

REGIONAL WEATHER ROUNDUP
NATIONAL WEATHER SERVICE WAKEFIELD VA
100 AM EDT FRI SEP 22 2017

Note: "fair" indicates few or no clouds below 12,000 feet with no
significant weather and/or obstructions to visibility. * = Denotes
station may not report precipitation (e.g., rain,snow,etc.),
thunder or fog.

VAZ042-051-052>054-056-220600-
NORTHERN VIRGINIA

CITY           SKY/WX    TMP DP  RH WIND       PRES   REMARKS
WASH NATIONAL  CLOUDY    74  68  81 CALM      30.05S
DULLES         MOCLDY    68  65  90 NW3       30.06S
FORT BELVOIR   PTCLDY    66  65  95 CALM      30.04F
QUANTICO       MOCLDY    70  68  93 NW7       30.06S
FREDERICKSBRG* MOCLDY    67  67 100 W3        30.05S
STAFFORD*      PTCLDY    63  63 100 CALM      30.09F
WARRENTON      MOCLDY    61  58  89 CALM      30.07S
CULPEPER*      PTCLDY    66  65  96 CALM      30.08S
MANASSAS*      MOCLDY    64  63  96 CALM      30.06S
LEESBURG*      MOCLDY    66  64  94 CALM      30.07F
WINCHESTER     PTCLDY    61  59  94 CALM      30.08F
FRONT ROYAL*   PTCLDY    61  61 100 CALM      30.09S
LURAY*         CLOUDY    63  61  94 CALM      30.11S
$$

VAZ048-049-060>072-079>083-220600-
CENTRAL AND SOUTH CENTRAL VIRGINIA

CITY           SKY/WX    TMP DP  RH WIND       PRES   REMARKS
RICHMOND       PTCLDY    68  65  90 CALM      30.06S
CHESTERFIELD*  NOT AVBL
PETERSBURG*    CLEAR     62  62 100 CALM      30.07S
HANOVER        CLEAR     66  65  96 CALM      30.07S
TAPPAHANNOCK*  CLEAR    N/A N/A N/A CALM      30.06S
QUINTON*       FAIR      65  65 100 CALM      30.06R
CHARLOTTSVILLE MOCLDY    69  66  90 CALM      30.09S
GORDONSVILLE*  PTCLDY    63  63 100 CALM      30.07F
ORANGE*        CLOUDY    63  61  94 CALM      30.08S
LOUISA*        PTCLDY    63  61  94 CALM      30.07S FOG
BUMPASS*       FAIR      65  65 100 CALM      30.07S
FARMVILLE*     CLEAR     65  65 100 CALM      30.07S
CREWE*         FAIR      64  64 100 CALM      30.07S
FORT PICKETT*  FAIR      65  65 100 CALM      30.07S
CHASE CITY*    FAIR      65  65 100 CALM      30.08S
CLARKSVILLE*   FAIR      64  64 100 CALM      30.07S
SOUTH HILL*    CLEAR     65  65 100 CALM      30.12S
LAWRENCEVILLE* FAIR      67  66  97 CALM      30.07S
EMPORIA*       CLEAR     64  64 100 CALM      30.08S
$$

VAZ088>098-220600-
SOUTHEAST VIRGINIA

CITY           SKY/WX    TMP DP  RH WIND       PRES   REMARKS
NORFOLK        CLEAR     69  66  90 SW5       30.05S
VIRGINIA BEACH CLEAR     66  62  87 SW3       30.04F
NORFOLK NAVAL  CLEAR     71  65  81 CALM      30.06S
WEST POINT*    PTCLDY    64  64 100 CALM      30.07S
SALUDA*        FAIR      69  69 100 SW3       30.05S
NEWPORT NEWS   CLEAR     68  66  93 CALM      30.06R
LANGLEY AFB    CLEAR     69  66  90 SW3       30.05S
FORT EUSTIS    CLEAR     71  67  88 S5        30.03S
WILLIAMSBURG*  CLEAR     72  70  94 S6        30.06F
HR EXEC AP*    FAIR      63  62  97 CALM      30.07R
FRANKLIN*      CLEAR     65  64  96 CALM      30.06F
US460-WAKEFLD  CLEAR     66  66 100 CALM      30.06S
$$

VAZ020-022-025-037-045-220600-
WEST CENTRAL AND SOUTHWEST VIRGINIA

CITY           SKY/WX    TMP DP  RH WIND       PRES   REMARKS
STAUNTON*      CLEAR     60  59  94 CALM      30.14S
WAYNESBORO*    CLEAR     64  63  98 CALM      30.14R
HOT SPRINGS VA CLEAR     64  56  73 E3        30.24S
LYNCHBURG      CLEAR     66  64  93 CALM      30.10F
DANVILLE       CLEAR     65  65 100 CALM      30.08S
SOUTH BOSTON*  FAIR      64  63  95 CALM      30.08S
MARTINSVILLE   PTCLDY    65  64  97 CALM      30.13S
ROANOKE        CLOUDY    73  66  78 CALM      30.13S
BLACKSBURG     CLOUDY    69  66  90 CALM      30.18F
DUBLIN*        CLOUDY    68  66  93 CALM      30.17S
MARION*        PTCLDY    62  59  91 CALM      30.20F
HILLSVILLE*    FOG       64  60  87 CALM      30.18S VSB 1
RICHLANDS*     FAIR      67  62  83 CALM      30.18F
WISE*          PTCLDY    64  64 100 CALM      30.19F
ABINGDON*      CLEAR     67  64  89 CALM      30.15S
$$

MDZ021>025-VAZ099-100-220600-
SOUTHERN MARYLAND AND THE DELMARVA PENINSULA

CITY           SKY/WX    TMP DP  RH WIND       PRES   REMARKS
PATUXENT RIVER PTCLDY    69  69 100 SW5       30.02F
BAY BRIDGE APT PTCLDY    75  68  78 CALM      30.02S
LEONARDTOWN    CLOUDY    68  64  88 CALM      30.05F
DOVER          CLOUDY    72  66  82 CALM      30.01R
GEORGETOWN     MOCLDY    69  66  90 SE6       30.03R
EASTON         CLOUDY    71  67  88 CALM      30.06S
CAMBRIDGE      CLEAR     70  68  94 CALM      30.03S
SALISBURY      CLOUDY    69  67  93 CALM      30.02S
OCEAN CITY     CLOUDY    67  66  97 CALM      30.03S
WALLOPS ISLAND CLOUDY    70  66  87 SW5       30.03S
ACCOMACK*      PTCLDY    68  66  94 SW3       30.03F
$$

NCZ012>017-030>032-220600-
NORTH CENTRAL AND EASTERN NORTH CAROLINA

CITY           SKY/WX    TMP DP  RH WIND       PRES   REMARKS
ROANOKE RAPIDS NOT AVBL
RALEIGH        PTCLDY    66  66 100 CALM      30.07F
ELIZABETH CITY CLEAR     67  66  97 CALM      30.06S
AHOSKIE*       CLEAR     65  65 100 CALM      30.06S
EDENTON*       CLEAR     72  67  86 CALM      30.06S
CURRITUCK*     CLEAR     68  66  95 CALM      30.06F
KILL DEVIL HLS CLEAR     70  64  82 CALM      30.04S
MANTEO         CLEAR     68  65  91 CALM      30.06S
CAPE HATTERAS  CLEAR     68  67  96 CALM      30.05S
TARBORO*       NOT AVBL
GOLDSBORO      CLEAR     68  68 100 CALM      30.03S
WASHINGTON     CLEAR     69  68  95 CALM      30.05S
GREENVILLE     FOG       68  68 100 CALM      30.06S VSB 1/4
NEW BERN       CLEAR     67  67 100 CALM      30.05F FOG
WILMINGTON     CLOUDY    69  67  93 N3        30.03F
$$

VAZ048-220600-
ELSEWHERE

CITY           SKY/WX    TMP DP  RH WIND       PRES   REMARKS
HARRISBURG PA  CLOUDY    71  68  90 NW5       30.05F
BALTIMORE      MOCLDY    70  67  90 NW6       30.03S
ANNAPOLIS      CLOUDY    75  73  93 NW3       30.02S
ANDREWS AFB    CLOUDY    68  65  90 CALM      30.04S
PHILADELPHIA   CLOUDY    74  61  63 N7        30.03S
HENDERSON NC   CLEAR     63  62  96 CALM      30.07S
GREENSBORO     PTCLDY    72  67  84 CALM      30.08F
ROCKY MOUNT    CLEAR     67  67 100 CALM      30.05F FOG
$$

VAZ100-220600-
MARINE

STATION/POSITION TIME  TEMP    WIND        PRES    WAVE   SWELL
                       AIR SEA DIR/SP/G            HT/PER HT/PER
                 (UTC) (F)     (DEG/KT/KT) (MB)    (FT/S) (FT/S)
BRANDYWINE LGT   0436   74     140/  3/  4 1016.9R
CAPE MAY NJ      0448   72 75  280/  2/  3 1015.9F
LEWES DE         0448   71 75  220/  3/  4 1016.3S
15NM E FENWICK I 0450   73 71  260/  6/  8 1016.6F   6/11   5/11
OCEAN-CITY-INLET 0448   71 74  270/  2/  2 1016.9F
WACHAPREAGUE VA  0448   70 76  260/  3/  4 1016.9F
THOMAS POINT MD  0500   75 76  310/  8/  8   N/A
GOOSES REEF MD   0500   76 76  240/  4/  6 1017.3
COVE POINT MD    0448   74     240/  6/  7 1017.3F
SOLOMONS ISLAND  0448   74 76  240/  5/  5 1016.5F
BISHOPS HEAD MD  0448   75 78  210/ 12/ 13 1016.7F
PINEY POINT MD   0448          250/  2/  2   N/A
POTOMAC MD       0500   74 76  220/ 14/ 16 1016.1    1/ 2
CAMBRIDGE MD     0436   72 76              1017.5S
LEWISETTA VA     0448   72 78  220/  7/  9 1016.8F
RAPPAHANNOCK LGT 0448          200/ 11/ 12 1017.6F
STINGRAY PT      0500   74 76  230/ 10/ 12 1017.5    1/ 2
YORK RVR RNG VA  0448   74     180/  9/ 12 1018.0F
YORKTOWN VA      0448   72 77  180/  4/  6 1017.2F
JAMESTOWN VA     0500      78  170/  6/  8   N/A     0
DOMINION TERM VA 0448   73     170/  6/  7 1017.8F
KIPTOPEKE VA     0448      76  190/  8/  9   N/A
CHES BAY BRIDGE  0448   73 76  180/  6/  8 1017.4F
CAPE HENRY VA    0448   71     180/  5/  6   N/A
WILLOUBY STN VA  0448   72     170/  6/  8 1017.6F
S CRANEY ISL VA  0448   73     200/  6/  8 1017.5S
CAPE HENRY BUOY  0500      75                N/A     4/11   2/11
1ST LANDING BUOY 0500   73 75              1017.4    2/ 5
64NM E OF VA BCH 0450   69 69  250/  4/  8 1017.3F   7/11   7/11
DUCK PIER NC     0448   73 75   80/  8/  8 1017.2F
44100 DUCK FRF   0435      74                N/A     5/10   3/11
44056 DUCK FRF   0500      76                N/A     4/10   2/11
OREGON INLET NC  0436   72 78   50/  4/  7 1017.4S
HATTERAS NC      0448   74 78  110/  3/  4 1017.4F
DIAMOND SHLS NC  0450   75 75   40/  4/  6 1017.3S   5/10   5/10
CAPE LOOKOUT NC  0500   77      80/  8/  9 1016.9F
$$




USA.gov is the U.S. government's official web portal to all federal, state and local government web resources and services.